Year,Month,Day,Hour,Minute,Value (Times are PST for temperature in C)
2018,08,02,00,00,14.40
2018,08,02,00,01,14.30
2018,08,02,00,02,14.30
2018,08,02,00,03,14.30
2018,08,02,00,04,14.20
2018,08,02,00,05,14.20
2018,08,02,00,06,14.20
2018,08,02,00,07,14.10
2018,08,02,00,08,14.10
2018,08,02,00,09,14.10
2018,08,02,00,10,14.10
2018,08,02,00,11,14.10
2018,08,02,00,12,14.00
2018,08,02,00,13,14.00
2018,08,02,00,14,14.00
2018,08,02,00,15,14.00
2018,08,02,00,16,14.00
2018,08,02,00,17,13.90
2018,08,02,00,18,13.90
2018,08,02,00,19,13.90
2018,08,02,00,20,13.90
2018,08,02,00,21,13.80
2018,08,02,00,22,13.80
2018,08,02,00,23,13.80
2018,08,02,00,24,13.80
2018,08,02,00,25,13.80
2018,08,02,00,26,13.80
2018,08,02,00,27,13.70
2018,08,02,00,28,13.70
2018,08,02,00,29,13.70
2018,08,02,00,30,13.70
2018,08,02,00,31,13.70
2018,08,02,00,32,13.70
2018,08,02,00,33,13.70
2018,08,02,00,34,13.70
2018,08,02,00,35,13.70
2018,08,02,00,36,13.70
2018,08,02,00,37,13.70
2018,08,02,00,38,13.70
2018,08,02,00,39,13.60
2018,08,02,00,40,13.60
2018,08,02,00,41,13.60
2018,08,02,00,42,13.60
2018,08,02,00,43,13.60
2018,08,02,00,44,13.60
2018,08,02,00,45,13.60
2018,08,02,00,46,13.60
2018,08,02,00,47,13.60
2018,08,02,00,48,13.60
2018,08,02,00,49,13.60
2018,08,02,00,50,13.60
2018,08,02,00,51,13.60
2018,08,02,00,52,13.60
2018,08,02,00,53,13.50
2018,08,02,00,54,13.50
2018,08,02,00,55,13.50
2018,08,02,00,56,13.40
2018,08,02,00,57,13.40
2018,08,02,00,58,13.40
2018,08,02,00,59,13.40
2018,08,02,01,00,13.40
2018,08,02,01,01,13.40
2018,08,02,01,02,13.40
2018,08,02,01,03,13.40
2018,08,02,01,04,13.40
2018,08,02,01,05,13.40
2018,08,02,01,06,13.40
2018,08,02,01,07,13.40
2018,08,02,01,08,13.40
2018,08,02,01,09,13.40
2018,08,02,01,10,13.30
2018,08,02,01,11,13.40
2018,08,02,01,12,13.40
2018,08,02,01,13,13.40
2018,08,02,01,14,13.40
2018,08,02,01,15,13.40
2018,08,02,01,16,13.40
2018,08,02,01,17,13.40
2018,08,02,01,18,13.40
2018,08,02,01,19,13.40
2018,08,02,01,20,13.40
2018,08,02,01,21,13.40
2018,08,02,01,22,13.40
2018,08,02,01,23,13.40
2018,08,02,01,24,13.40
2018,08,02,01,25,13.40
2018,08,02,01,26,13.40
2018,08,02,01,27,13.40
2018,08,02,01,28,13.40
2018,08,02,01,29,13.40
2018,08,02,01,30,13.40
2018,08,02,01,31,13.40
2018,08,02,01,32,13.40
2018,08,02,01,33,13.40
2018,08,02,01,34,13.40
2018,08,02,01,35,13.40
2018,08,02,01,36,13.40
2018,08,02,01,37,13.30
2018,08,02,01,38,13.30
2018,08,02,01,39,13.30
2018,08,02,01,40,13.20
2018,08,02,01,41,13.20
2018,08,02,01,42,13.20
2018,08,02,01,43,13.20
2018,08,02,01,44,13.20
2018,08,02,01,45,13.20
2018,08,02,01,46,13.20
2018,08,02,01,47,13.20
2018,08,02,01,48,13.20
2018,08,02,01,49,13.20
2018,08,02,01,50,13.20
2018,08,02,01,51,13.20
2018,08,02,01,52,13.10
2018,08,02,01,53,13.10
2018,08,02,01,54,13.10
2018,08,02,01,55,13.10
2018,08,02,01,56,13.10
2018,08,02,01,57,13.00
2018,08,02,01,58,13.00
2018,08,02,01,59,13.00
2018,08,02,02,00,12.90
2018,08,02,02,01,12.90
2018,08,02,02,02,12.90
2018,08,02,02,03,12.90
2018,08,02,02,04,12.90
2018,08,02,02,05,12.90
2018,08,02,02,06,12.90
2018,08,02,02,07,12.90
2018,08,02,02,08,12.90
2018,08,02,02,09,12.90
2018,08,02,02,10,12.80
2018,08,02,02,11,12.80
2018,08,02,02,12,12.80
2018,08,02,02,13,12.80
2018,08,02,02,14,12.80
2018,08,02,02,15,12.80
2018,08,02,02,16,12.80
2018,08,02,02,17,12.80
2018,08,02,02,18,12.70
2018,08,02,02,19,12.70
2018,08,02,02,20,12.70
2018,08,02,02,21,12.70
2018,08,02,02,22,12.70
2018,08,02,02,23,12.70
2018,08,02,02,24,12.70
2018,08,02,02,25,12.70
2018,08,02,02,26,12.70
2018,08,02,02,27,12.70
2018,08,02,02,28,12.70
2018,08,02,02,29,12.70
2018,08,02,02,30,12.70
2018,08,02,02,31,12.60
2018,08,02,02,32,12.60
2018,08,02,02,33,12.60
2018,08,02,02,34,12.60
2018,08,02,02,35,12.60
2018,08,02,02,36,12.60
2018,08,02,02,37,12.60
2018,08,02,02,38,12.70
2018,08,02,02,39,12.70
2018,08,02,02,40,12.70
2018,08,02,02,41,12.70
2018,08,02,02,42,12.70
2018,08,02,02,43,12.70
2018,08,02,02,44,12.70
2018,08,02,02,45,12.70
2018,08,02,02,46,12.70
2018,08,02,02,47,12.80
2018,08,02,02,48,12.80
2018,08,02,02,49,12.80
2018,08,02,02,50,12.80
2018,08,02,02,51,12.80
2018,08,02,02,52,12.80
2018,08,02,02,53,12.80
2018,08,02,02,54,12.80
2018,08,02,02,55,12.80
2018,08,02,02,56,12.80
2018,08,02,02,57,12.80
2018,08,02,02,58,12.80
2018,08,02,02,59,12.80
2018,08,02,03,00,12.80
2018,08,02,03,01,12.80
2018,08,02,03,02,12.80
2018,08,02,03,03,12.80
2018,08,02,03,04,12.70
2018,08,02,03,05,12.70
2018,08,02,03,06,12.80
2018,08,02,03,07,12.80
2018,08,02,03,08,12.80
2018,08,02,03,09,12.80
2018,08,02,03,10,12.80
2018,08,02,03,11,12.80
2018,08,02,03,12,12.80
2018,08,02,03,13,12.80
2018,08,02,03,14,12.80
2018,08,02,03,15,12.90
2018,08,02,03,16,12.90
2018,08,02,03,17,12.90
2018,08,02,03,18,12.90
2018,08,02,03,19,12.90
2018,08,02,03,20,12.90
2018,08,02,03,21,12.90
2018,08,02,03,22,12.90
2018,08,02,03,23,12.90
2018,08,02,03,24,12.90
2018,08,02,03,25,12.90
2018,08,02,03,26,12.90
2018,08,02,03,27,12.90
2018,08,02,03,28,12.90
2018,08,02,03,29,12.80
2018,08,02,03,30,12.80
2018,08,02,03,31,12.80
2018,08,02,03,32,12.80
2018,08,02,03,33,12.80
2018,08,02,03,34,12.80
2018,08,02,03,35,12.80
2018,08,02,03,36,12.80
2018,08,02,03,37,12.80
2018,08,02,03,38,12.70
2018,08,02,03,39,12.70
2018,08,02,03,40,12.70
2018,08,02,03,41,12.70
2018,08,02,03,42,12.60
2018,08,02,03,43,12.60
2018,08,02,03,44,12.60
2018,08,02,03,45,12.60
2018,08,02,03,46,12.60
2018,08,02,03,47,12.60
2018,08,02,03,48,12.60
2018,08,02,03,49,12.50
2018,08,02,03,50,12.50
2018,08,02,03,51,12.50
2018,08,02,03,52,12.40
2018,08,02,03,53,12.40
2018,08,02,03,54,12.40
2018,08,02,03,55,12.40
2018,08,02,03,56,12.40
2018,08,02,03,57,12.40
2018,08,02,03,58,12.40
2018,08,02,03,59,12.40
2018,08,02,04,00,12.40
2018,08,02,04,01,12.40
2018,08,02,04,02,12.40
2018,08,02,04,03,12.40
2018,08,02,04,04,12.40
2018,08,02,04,08,12.40
2018,08,02,04,09,12.40
2018,08,02,04,10,12.40
2018,08,02,04,11,12.40
2018,08,02,04,12,12.40
2018,08,02,04,13,12.40
2018,08,02,04,14,12.40
2018,08,02,04,15,12.40
2018,08,02,04,16,12.30
2018,08,02,04,17,12.30
2018,08,02,04,18,12.30
2018,08,02,04,19,12.30
2018,08,02,04,20,12.30
2018,08,02,04,21,12.30
2018,08,02,04,22,12.30
2018,08,02,04,23,12.30
2018,08,02,04,24,12.30
2018,08,02,04,25,12.30
2018,08,02,04,26,12.30
2018,08,02,04,27,12.30
2018,08,02,04,28,12.30
2018,08,02,04,29,12.30
2018,08,02,04,30,12.30
2018,08,02,04,31,12.30
2018,08,02,04,32,12.30
2018,08,02,04,33,12.30
2018,08,02,04,34,12.30
2018,08,02,04,35,12.30
2018,08,02,04,36,12.30
2018,08,02,04,37,12.30
2018,08,02,04,38,12.30
2018,08,02,04,39,12.30
2018,08,02,04,40,12.20
2018,08,02,04,41,12.20
2018,08,02,04,42,12.20
2018,08,02,04,43,12.20
2018,08,02,04,44,12.20
2018,08,02,04,45,12.20
2018,08,02,04,46,12.10
2018,08,02,04,47,12.10
2018,08,02,04,48,12.10
2018,08,02,04,49,12.00
2018,08,02,04,50,12.00
2018,08,02,04,51,12.00
2018,08,02,04,52,12.00
2018,08,02,04,53,12.00
2018,08,02,04,54,12.00
2018,08,02,04,55,11.90
2018,08,02,04,56,12.00
2018,08,02,04,57,12.00
2018,08,02,04,58,12.00
2018,08,02,04,59,12.00
2018,08,02,05,00,12.00
2018,08,02,05,01,12.00
2018,08,02,05,02,12.00
2018,08,02,05,03,12.00
2018,08,02,05,04,12.00
2018,08,02,05,05,12.00
2018,08,02,05,06,11.90
2018,08,02,05,07,11.90
2018,08,02,05,08,11.90
2018,08,02,05,09,11.90
2018,08,02,05,10,11.80
2018,08,02,05,11,11.80
2018,08,02,05,12,11.80
2018,08,02,05,13,11.80
2018,08,02,05,14,11.80
2018,08,02,05,15,11.80
2018,08,02,05,16,11.90
2018,08,02,05,17,11.90
2018,08,02,05,18,11.90
2018,08,02,05,19,11.90
2018,08,02,05,20,11.90
2018,08,02,05,21,11.80
2018,08,02,05,22,11.80
2018,08,02,05,23,11.80
2018,08,02,05,24,11.80
2018,08,02,05,25,11.80
2018,08,02,05,26,11.80
2018,08,02,05,27,11.80
2018,08,02,05,28,11.80
2018,08,02,05,29,11.80
2018,08,02,05,30,11.70
2018,08,02,05,31,11.70
2018,08,02,05,32,11.70
2018,08,02,05,33,11.80
2018,08,02,05,34,11.80
2018,08,02,05,35,11.80
2018,08,02,05,36,11.80
2018,08,02,05,37,11.80
2018,08,02,05,38,11.80
2018,08,02,05,39,11.80
2018,08,02,05,40,11.80
2018,08,02,05,41,11.80
2018,08,02,05,42,11.80
2018,08,02,05,43,11.90
2018,08,02,05,44,11.90
2018,08,02,05,45,11.80
2018,08,02,05,46,11.80
2018,08,02,05,47,11.90
2018,08,02,05,48,11.80
2018,08,02,05,49,11.80
2018,08,02,05,50,11.90
2018,08,02,05,51,11.90
2018,08,02,05,52,11.80
2018,08,02,05,53,11.90
2018,08,02,05,54,11.80
2018,08,02,05,55,11.80
2018,08,02,05,56,11.80
2018,08,02,05,57,11.80
2018,08,02,05,58,11.70
2018,08,02,05,59,11.70
2018,08,02,06,00,11.70
2018,08,02,06,01,11.70
2018,08,02,06,02,11.70
2018,08,02,06,03,11.70
2018,08,02,06,04,11.70
2018,08,02,06,05,11.70
2018,08,02,06,06,11.70
2018,08,02,06,07,11.70
2018,08,02,06,08,11.80
2018,08,02,06,09,11.80
2018,08,02,06,10,11.80
2018,08,02,06,11,11.80
2018,08,02,06,12,11.80
2018,08,02,06,13,11.80
2018,08,02,06,14,11.80
2018,08,02,06,15,11.80
2018,08,02,06,16,11.80
2018,08,02,06,17,11.90
2018,08,02,06,18,11.90
2018,08,02,06,19,11.90
2018,08,02,06,20,11.90
2018,08,02,06,21,11.90
2018,08,02,06,22,11.90
2018,08,02,06,23,11.90
2018,08,02,06,24,11.90
2018,08,02,06,25,11.90
2018,08,02,06,26,11.90
2018,08,02,06,27,11.90
2018,08,02,06,28,11.90
2018,08,02,06,29,12.00
2018,08,02,06,30,12.00
2018,08,02,06,31,12.00
2018,08,02,06,32,12.00
2018,08,02,06,33,12.00
2018,08,02,06,34,12.10
2018,08,02,06,35,12.10
2018,08,02,06,36,12.10
2018,08,02,06,37,12.20
2018,08,02,06,38,12.20
2018,08,02,06,39,12.30
2018,08,02,06,40,12.30
2018,08,02,06,41,12.30
2018,08,02,06,42,12.40
2018,08,02,06,43,12.40
2018,08,02,06,44,12.50
2018,08,02,06,45,12.50
2018,08,02,06,46,12.60
2018,08,02,06,47,12.60
2018,08,02,06,48,12.70
2018,08,02,06,49,12.70
2018,08,02,06,50,12.70
2018,08,02,06,51,12.80
2018,08,02,06,52,12.80
2018,08,02,06,53,12.90
2018,08,02,06,54,12.90
2018,08,02,06,55,12.90
2018,08,02,06,56,13.00
2018,08,02,06,57,13.00
2018,08,02,06,58,13.10
2018,08,02,06,59,13.20
2018,08,02,07,00,13.20
2018,08,02,07,01,13.20
2018,08,02,07,02,13.30
2018,08,02,07,03,13.30
2018,08,02,07,04,13.30
2018,08,02,07,05,13.40
2018,08,02,07,06,13.40
2018,08,02,07,07,13.50
2018,08,02,07,08,13.50
2018,08,02,07,09,13.60
2018,08,02,07,10,13.60
2018,08,02,07,11,13.70
2018,08,02,07,12,13.70
2018,08,02,07,13,13.70
2018,08,02,07,14,13.80
2018,08,02,07,15,13.80
2018,08,02,07,16,13.90
2018,08,02,07,17,13.90
2018,08,02,07,18,13.90
2018,08,02,07,19,14.00
2018,08,02,07,20,14.00
2018,08,02,07,21,14.10
2018,08,02,07,22,14.10
2018,08,02,07,23,14.20
2018,08,02,07,24,14.20
2018,08,02,07,25,14.20
2018,08,02,07,26,14.30
2018,08,02,07,27,14.30
2018,08,02,07,28,14.30
2018,08,02,07,29,14.30
2018,08,02,07,30,14.40
2018,08,02,07,31,14.40
2018,08,02,07,32,14.50
2018,08,02,07,33,14.50
2018,08,02,07,34,14.60
2018,08,02,07,35,14.60
2018,08,02,07,36,14.60
2018,08,02,07,37,14.70
2018,08,02,07,38,14.70
2018,08,02,07,39,14.70
2018,08,02,07,40,14.80
2018,08,02,07,41,14.80
2018,08,02,07,42,14.80
2018,08,02,07,43,14.90
2018,08,02,07,44,14.90
2018,08,02,07,45,14.90
2018,08,02,07,46,15.00
2018,08,02,07,47,15.00
2018,08,02,07,48,15.10
2018,08,02,07,49,15.10
2018,08,02,07,50,15.20
2018,08,02,07,51,15.20
2018,08,02,07,52,15.30
2018,08,02,07,53,15.30
2018,08,02,07,54,15.40
2018,08,02,07,55,15.40
2018,08,02,07,56,15.50
2018,08,02,07,57,15.50
2018,08,02,07,58,15.60
2018,08,02,07,59,15.60
2018,08,02,08,00,15.70
2018,08,02,08,01,15.70
2018,08,02,08,02,15.80
2018,08,02,08,03,15.80
2018,08,02,08,04,15.80
2018,08,02,08,05,15.80
2018,08,02,08,06,15.90
2018,08,02,08,07,15.90
2018,08,02,08,08,15.90
2018,08,02,08,09,16.00
2018,08,02,08,10,16.00
2018,08,02,08,11,16.10
2018,08,02,08,12,16.20
2018,08,02,08,13,16.20
2018,08,02,08,14,16.30
2018,08,02,08,15,16.40
2018,08,02,08,16,16.50
2018,08,02,08,17,16.50
2018,08,02,08,18,16.60
2018,08,02,08,19,16.70
2018,08,02,08,20,16.70
2018,08,02,08,21,16.80
2018,08,02,08,22,16.90
2018,08,02,08,23,16.90
2018,08,02,08,24,17.00
2018,08,02,08,25,17.10
2018,08,02,08,26,17.10
2018,08,02,08,27,17.20
2018,08,02,08,28,17.30
2018,08,02,08,29,17.30
2018,08,02,08,30,17.30
2018,08,02,08,31,17.30
2018,08,02,08,32,17.40
2018,08,02,08,33,17.40
2018,08,02,08,34,17.50
2018,08,02,08,35,17.50
2018,08,02,08,36,17.60
2018,08,02,08,37,17.60
2018,08,02,08,38,17.60
2018,08,02,08,39,17.60
2018,08,02,08,40,17.70
2018,08,02,08,41,17.70
2018,08,02,08,42,17.80
2018,08,02,08,43,17.80
2018,08,02,08,44,17.90
2018,08,02,08,45,17.90
2018,08,02,08,46,17.90
2018,08,02,08,47,18.00
2018,08,02,08,48,18.00
2018,08,02,08,49,18.00
2018,08,02,08,50,18.00
2018,08,02,08,51,18.00
2018,08,02,08,52,17.90
2018,08,02,08,53,17.90
2018,08,02,08,54,17.90
2018,08,02,08,55,18.00
2018,08,02,08,56,18.00
2018,08,02,08,57,18.10
2018,08,02,08,58,18.10
2018,08,02,08,59,18.10
2018,08,02,09,00,18.10
2018,08,02,09,01,18.10
2018,08,02,09,02,18.10
2018,08,02,09,03,18.10
2018,08,02,09,04,18.20
2018,08,02,09,05,18.20
2018,08,02,09,06,18.20
2018,08,02,09,07,18.30
2018,08,02,09,08,18.30
2018,08,02,09,09,18.30
2018,08,02,09,10,18.20
2018,08,02,09,11,18.20
2018,08,02,09,12,18.20
2018,08,02,09,13,18.20
2018,08,02,09,14,18.10
2018,08,02,09,15,18.10
2018,08,02,09,16,18.00
2018,08,02,09,17,18.00
2018,08,02,09,18,18.00
2018,08,02,09,19,18.10
2018,08,02,09,20,18.10
2018,08,02,09,21,18.10
2018,08,02,09,22,18.20
2018,08,02,09,23,18.20
2018,08,02,09,24,18.20
2018,08,02,09,25,18.20
2018,08,02,09,26,18.10
2018,08,02,09,27,18.10
2018,08,02,09,28,18.10
2018,08,02,09,29,18.10
2018,08,02,09,30,18.20
2018,08,02,09,31,18.20
2018,08,02,09,32,18.20
2018,08,02,09,33,18.30
2018,08,02,09,34,18.30
2018,08,02,09,35,18.30
2018,08,02,09,36,18.30
2018,08,02,09,37,18.30
2018,08,02,09,38,18.30
2018,08,02,09,39,18.30
2018,08,02,09,40,18.30
2018,08,02,09,41,18.30
2018,08,02,09,42,18.20
2018,08,02,09,43,18.20
2018,08,02,09,44,18.20
2018,08,02,09,45,18.20
2018,08,02,09,46,18.30
2018,08,02,09,47,18.30
2018,08,02,09,48,18.40
2018,08,02,09,49,18.50
2018,08,02,09,50,18.60
2018,08,02,09,51,18.70
2018,08,02,09,52,18.80
2018,08,02,09,53,18.80
2018,08,02,09,54,18.80
2018,08,02,09,55,18.80
2018,08,02,09,56,18.90
2018,08,02,09,57,18.90
2018,08,02,09,58,19.00
2018,08,02,09,59,19.00
2018,08,02,10,00,19.10
2018,08,02,10,01,19.20
2018,08,02,10,02,19.20
2018,08,02,10,03,19.20
2018,08,02,10,04,19.30
2018,08,02,10,05,19.30
2018,08,02,10,06,19.30
2018,08,02,10,07,19.30
2018,08,02,10,08,19.30
2018,08,02,10,09,19.40
2018,08,02,10,10,19.40
2018,08,02,10,11,19.50
2018,08,02,10,12,19.50
2018,08,02,10,13,19.60
2018,08,02,10,14,19.60
2018,08,02,10,15,19.70
2018,08,02,10,16,19.60
2018,08,02,10,17,19.60
2018,08,02,10,18,19.50
2018,08,02,10,19,19.50
2018,08,02,10,20,19.40
2018,08,02,10,21,19.40
2018,08,02,10,22,19.40
2018,08,02,10,23,19.40
2018,08,02,10,24,19.40
2018,08,02,10,25,19.40
2018,08,02,10,26,19.40
2018,08,02,10,27,19.40
2018,08,02,10,28,19.40
2018,08,02,10,29,19.40
2018,08,02,10,30,19.40
2018,08,02,10,31,19.40
2018,08,02,10,32,19.30
2018,08,02,10,33,19.30
2018,08,02,10,34,19.30
2018,08,02,10,35,19.30
2018,08,02,10,36,19.40
2018,08,02,10,37,19.40
2018,08,02,10,38,19.50
2018,08,02,10,39,19.50
2018,08,02,10,40,19.50
2018,08,02,10,41,19.50
2018,08,02,10,42,19.40
2018,08,02,10,43,19.40
2018,08,02,10,44,19.30
2018,08,02,10,45,19.30
2018,08,02,10,46,19.30
2018,08,02,10,47,19.30
2018,08,02,10,48,19.30
2018,08,02,10,49,19.40
2018,08,02,10,50,19.40
2018,08,02,10,51,19.50
2018,08,02,10,52,19.60
2018,08,02,10,53,19.60
2018,08,02,10,54,19.60
2018,08,02,10,55,19.60
2018,08,02,10,56,19.60
2018,08,02,10,57,19.50
2018,08,02,10,58,19.40
2018,08,02,10,59,19.40
2018,08,02,11,00,19.40
2018,08,02,11,01,19.40
2018,08,02,11,02,19.30
2018,08,02,11,03,19.30
2018,08,02,11,04,19.30
2018,08,02,11,05,19.30
2018,08,02,11,06,19.20
2018,08,02,11,07,19.20
2018,08,02,11,08,19.20
2018,08,02,11,09,19.20
2018,08,02,11,10,19.30
2018,08,02,11,11,19.30
2018,08,02,11,12,19.20
2018,08,02,11,13,19.20
2018,08,02,11,14,19.30
2018,08,02,11,15,19.30
2018,08,02,11,16,19.30
2018,08,02,11,17,19.30
2018,08,02,11,18,19.30
2018,08,02,11,19,19.30
2018,08,02,11,20,19.30
2018,08,02,11,21,19.30
2018,08,02,11,22,19.40
2018,08,02,11,23,19.40
2018,08,02,11,24,19.40
2018,08,02,11,25,19.40
2018,08,02,11,26,19.40
2018,08,02,11,27,19.40
2018,08,02,11,28,19.40
2018,08,02,11,29,19.40
2018,08,02,11,30,19.40
2018,08,02,11,31,19.40
2018,08,02,11,32,19.40
2018,08,02,11,33,19.40
2018,08,02,11,34,19.40
2018,08,02,11,35,19.50
2018,08,02,11,36,19.60
2018,08,02,11,37,19.60
2018,08,02,11,38,19.60
2018,08,02,11,39,19.70
2018,08,02,11,40,19.70
2018,08,02,11,41,19.70
2018,08,02,11,42,19.70
2018,08,02,11,43,19.70
2018,08,02,11,44,19.70
2018,08,02,11,45,19.70
2018,08,02,11,46,19.70
2018,08,02,11,47,19.70
2018,08,02,11,48,19.70
2018,08,02,11,49,19.70
2018,08,02,11,50,19.70
2018,08,02,11,51,19.80
2018,08,02,11,52,19.80
2018,08,02,11,53,19.80
2018,08,02,11,54,19.80
2018,08,02,11,55,19.80
2018,08,02,11,56,19.80
2018,08,02,11,57,19.80
2018,08,02,11,58,19.90
2018,08,02,11,59,20.00
2018,08,02,12,00,20.10
2018,08,02,12,01,20.10
2018,08,02,12,02,20.10
2018,08,02,12,03,20.20
2018,08,02,12,04,20.20
2018,08,02,12,05,20.20
2018,08,02,12,06,20.30
2018,08,02,12,07,20.20
2018,08,02,12,08,20.20
2018,08,02,12,09,20.20
2018,08,02,12,10,20.20
2018,08,02,12,11,20.10
2018,08,02,12,12,20.10
2018,08,02,12,13,20.00
2018,08,02,12,14,20.00
2018,08,02,12,15,20.00
2018,08,02,12,16,19.90
2018,08,02,12,17,19.90
2018,08,02,12,18,19.90
2018,08,02,12,19,19.90
2018,08,02,12,20,19.90
2018,08,02,12,21,19.90
2018,08,02,12,22,20.00
2018,08,02,12,23,20.00
2018,08,02,12,24,20.00
2018,08,02,12,25,20.00
2018,08,02,12,26,20.00
2018,08,02,12,27,20.00
2018,08,02,12,28,20.00
2018,08,02,12,29,20.00
2018,08,02,12,30,19.90
2018,08,02,12,31,20.00
2018,08,02,12,32,20.00
2018,08,02,12,33,20.00
2018,08,02,12,34,19.90
2018,08,02,12,35,19.90
2018,08,02,12,36,19.80
2018,08,02,12,37,19.80
2018,08,02,12,38,19.80
2018,08,02,12,39,19.80
2018,08,02,12,40,19.80
2018,08,02,12,41,19.90
2018,08,02,12,42,19.90
2018,08,02,12,43,19.90
2018,08,02,12,44,19.90
2018,08,02,12,45,19.90
2018,08,02,12,46,19.90
2018,08,02,12,47,19.90
2018,08,02,12,48,19.90
2018,08,02,12,49,19.80
2018,08,02,12,50,19.80
2018,08,02,12,51,19.80
2018,08,02,12,52,19.80
2018,08,02,12,53,19.80
2018,08,02,12,54,19.80
2018,08,02,12,55,19.80
2018,08,02,12,56,19.90
2018,08,02,12,57,19.90
2018,08,02,12,58,19.90
2018,08,02,12,59,19.90
2018,08,02,13,00,19.90
2018,08,02,13,01,20.00
2018,08,02,13,02,20.00
2018,08,02,13,03,20.00
2018,08,02,13,04,20.10
2018,08,02,13,05,20.10
2018,08,02,13,06,20.10
2018,08,02,13,07,20.10
2018,08,02,13,08,20.00
2018,08,02,13,09,20.00
2018,08,02,13,10,20.00
2018,08,02,13,11,20.00
2018,08,02,13,12,20.00
2018,08,02,13,13,19.90
2018,08,02,13,14,19.90
2018,08,02,13,15,19.90
2018,08,02,13,16,19.90
2018,08,02,13,17,19.90
2018,08,02,13,18,19.90
2018,08,02,13,19,19.80
2018,08,02,13,20,19.80
2018,08,02,13,21,19.80
2018,08,02,13,22,19.80
2018,08,02,13,23,19.80
2018,08,02,13,24,19.80
2018,08,02,13,25,19.80
2018,08,02,13,26,19.90
2018,08,02,13,27,19.90
2018,08,02,13,28,19.90
2018,08,02,13,29,19.90
2018,08,02,13,30,19.90
2018,08,02,13,31,19.80
2018,08,02,13,32,19.80
2018,08,02,13,33,19.70
2018,08,02,13,34,19.60
2018,08,02,13,35,19.60
2018,08,02,13,36,19.50
2018,08,02,13,37,19.50
2018,08,02,13,38,19.60
2018,08,02,13,39,19.50
2018,08,02,13,40,19.50
2018,08,02,13,41,19.60
2018,08,02,13,42,19.50
2018,08,02,13,43,19.50
2018,08,02,13,44,19.50
2018,08,02,13,45,19.50
2018,08,02,13,46,19.40
2018,08,02,13,47,19.40
2018,08,02,13,48,19.40
2018,08,02,13,49,19.30
2018,08,02,13,50,19.30
2018,08,02,13,51,19.30
2018,08,02,13,52,19.20
2018,08,02,13,53,19.20
2018,08,02,13,54,19.20
2018,08,02,13,55,19.20
2018,08,02,13,56,19.10
2018,08,02,13,57,19.10
2018,08,02,13,58,19.10
2018,08,02,13,59,19.00
2018,08,02,14,00,19.00
2018,08,02,14,01,19.00
2018,08,02,14,02,18.90
2018,08,02,14,03,18.90
2018,08,02,14,04,18.90
2018,08,02,14,05,18.90
2018,08,02,14,06,18.90
2018,08,02,14,07,18.90
2018,08,02,14,08,18.90
2018,08,02,14,09,18.90
2018,08,02,14,10,18.90
2018,08,02,14,11,18.80
2018,08,02,14,12,18.80
2018,08,02,14,13,18.80
2018,08,02,14,14,18.80
2018,08,02,14,15,18.80
2018,08,02,14,16,18.80
2018,08,02,14,17,18.80
2018,08,02,14,18,18.70
2018,08,02,14,19,18.70
2018,08,02,14,20,18.70
2018,08,02,14,21,18.70
2018,08,02,14,22,18.60
2018,08,02,14,23,18.60
2018,08,02,14,24,18.60
2018,08,02,14,25,18.60
2018,08,02,14,26,18.60
2018,08,02,14,27,18.60
2018,08,02,14,28,18.60
2018,08,02,14,29,18.60
2018,08,02,14,30,18.60
2018,08,02,14,31,18.60
2018,08,02,14,32,18.60
2018,08,02,14,33,18.60
2018,08,02,14,34,18.60
2018,08,02,14,35,18.70
2018,08,02,14,36,18.70
2018,08,02,14,37,18.70
2018,08,02,14,38,18.70
2018,08,02,14,39,18.70
2018,08,02,14,40,18.70
2018,08,02,14,41,18.70
2018,08,02,14,42,18.70
2018,08,02,14,43,18.70
2018,08,02,14,44,18.70
2018,08,02,14,45,18.60
2018,08,02,14,46,18.60
2018,08,02,14,47,18.60
2018,08,02,14,48,18.50
2018,08,02,14,49,18.50
2018,08,02,14,50,18.40
2018,08,02,14,51,18.40
2018,08,02,14,52,18.40
2018,08,02,14,53,18.40
2018,08,02,14,54,18.40
2018,08,02,14,55,18.40
2018,08,02,14,56,18.50
2018,08,02,14,57,18.50
2018,08,02,14,58,18.50
2018,08,02,14,59,18.60
2018,08,02,15,00,18.60
2018,08,02,15,01,18.70
2018,08,02,15,02,18.80
2018,08,02,15,03,18.80
2018,08,02,15,04,18.90
2018,08,02,15,05,19.00
2018,08,02,15,06,19.00
2018,08,02,15,07,18.90
2018,08,02,15,08,18.90
2018,08,02,15,09,18.90
2018,08,02,15,10,18.90
2018,08,02,15,11,18.90
2018,08,02,15,12,18.90
2018,08,02,15,13,18.90
2018,08,02,15,14,18.90
2018,08,02,15,15,18.90
2018,08,02,15,16,18.90
2018,08,02,15,17,19.00
2018,08,02,15,18,19.00
2018,08,02,15,19,19.10
2018,08,02,15,20,19.10
2018,08,02,15,21,19.20
2018,08,02,15,22,19.30
2018,08,02,15,23,19.30
2018,08,02,15,24,19.40
2018,08,02,15,25,19.50
2018,08,02,15,26,19.50
2018,08,02,15,27,19.60
2018,08,02,15,28,19.70
2018,08,02,15,29,19.70
2018,08,02,15,30,19.80
2018,08,02,15,31,19.90
2018,08,02,15,32,20.00
2018,08,02,15,33,20.10
2018,08,02,15,34,20.10
2018,08,02,15,35,20.10
2018,08,02,15,36,20.20
2018,08,02,15,37,20.20
2018,08,02,15,38,20.30
2018,08,02,15,39,20.30
2018,08,02,15,40,20.30
2018,08,02,15,41,20.30
2018,08,02,15,42,20.30
2018,08,02,15,43,20.30
2018,08,02,15,44,20.30
2018,08,02,15,45,20.40
2018,08,02,15,46,20.40
2018,08,02,15,47,20.40
2018,08,02,15,48,20.40
2018,08,02,15,49,20.40
2018,08,02,15,50,20.50
2018,08,02,15,51,20.40
2018,08,02,15,52,20.40
2018,08,02,15,53,20.40
2018,08,02,15,54,20.30
2018,08,02,15,55,20.30
2018,08,02,15,56,20.30
2018,08,02,15,57,20.30
2018,08,02,15,58,20.30
2018,08,02,15,59,20.30
2018,08,02,16,00,20.30
2018,08,02,16,01,20.30
2018,08,02,16,02,20.30
2018,08,02,16,03,20.30
2018,08,02,16,04,20.30
2018,08,02,16,05,20.20
2018,08,02,16,06,20.10
2018,08,02,16,07,20.10
2018,08,02,16,08,20.00
2018,08,02,16,09,20.00
2018,08,02,16,10,20.00
2018,08,02,16,11,20.10
2018,08,02,16,12,20.10
2018,08,02,16,13,20.10
2018,08,02,16,14,20.10
2018,08,02,16,15,20.20
2018,08,02,16,16,20.20
2018,08,02,16,17,20.20
2018,08,02,16,18,20.20
2018,08,02,16,19,20.20
2018,08,02,16,20,20.30
2018,08,02,16,21,20.20
2018,08,02,16,22,20.20
2018,08,02,16,23,20.20
2018,08,02,16,24,20.20
2018,08,02,16,25,20.20
2018,08,02,16,26,20.10
2018,08,02,16,27,20.10
2018,08,02,16,28,20.00
2018,08,02,16,29,20.00
2018,08,02,16,30,19.90
2018,08,02,16,31,19.90
2018,08,02,16,32,19.90
2018,08,02,16,33,19.90
2018,08,02,16,34,19.90
2018,08,02,16,35,19.80
2018,08,02,16,36,19.80
2018,08,02,16,37,19.70
2018,08,02,16,38,19.60
2018,08,02,16,39,19.60
2018,08,02,16,40,19.50
2018,08,02,16,41,19.40
2018,08,02,16,42,19.30
2018,08,02,16,43,19.30
2018,08,02,16,44,19.20
2018,08,02,16,45,19.10
2018,08,02,16,46,19.10
2018,08,02,16,47,19.10
2018,08,02,16,48,19.10
2018,08,02,16,49,19.10
2018,08,02,16,50,19.10
2018,08,02,16,51,19.20
2018,08,02,16,52,19.20
2018,08,02,16,53,19.20
2018,08,02,16,54,19.20
2018,08,02,16,55,19.20
2018,08,02,16,56,19.20
2018,08,02,16,57,19.20
2018,08,02,16,58,19.20
2018,08,02,16,59,19.20
2018,08,02,17,00,19.20
2018,08,02,17,01,19.20
2018,08,02,17,02,19.10
2018,08,02,17,03,19.00
2018,08,02,17,04,19.00
2018,08,02,17,05,18.90
2018,08,02,17,06,18.80
2018,08,02,17,07,18.80
2018,08,02,17,08,18.80
2018,08,02,17,09,18.70
2018,08,02,17,10,18.70
2018,08,02,17,11,18.60
2018,08,02,17,12,18.60
2018,08,02,17,13,18.60
2018,08,02,17,14,18.50
2018,08,02,17,15,18.50
2018,08,02,17,16,18.40
2018,08,02,17,17,18.40
2018,08,02,17,18,18.40
2018,08,02,17,19,18.40
2018,08,02,17,20,18.40
2018,08,02,17,21,18.50
2018,08,02,17,22,18.40